Time,TemperatureF,DewpointF,PressureIn,WindDirection,WindDirectionDegrees,WindSpeedMPH,WindSpeedGustMPH,Humidity,HourlyPrecipIn,Conditions,Clouds,dailyrainin,SolarRadiationWatts/m^2,SoftwareType,DateUTC
2013-05-14 00:02:00,48.8,35.5,29.99,South,171,8.0,11.0,60,0.00,,,0.00,0,Wunderground v.1.15,2013-05-14 05:02:00,
2013-05-14 00:07:00,48.7,35.4,29.98,SE,143,11.0,11.0,60,0.00,,,0.00,0,Wunderground v.1.15,2013-05-14 05:07:00,
2013-05-14 00:13:00,48.8,35.5,29.98,SSE,160,11.0,11.0,60,0.00,,,0.00,0,Wunderground v.1.15,2013-05-14 05:13:00,
2013-05-14 00:18:00,49.0,35.7,29.98,SE,136,6.0,16.0,60,0.00,,,0.00,0,Wunderground v.1.15,2013-05-14 05:18:00,
2013-05-14 00:23:00,49.2,35.5,29.98,ESE,120,8.0,13.0,59,0.00,,,0.00,0,Wunderground v.1.15,2013-05-14 05:23:00,
2013-05-14 00:29:00,49.4,35.7,29.97,SSE,152,13.0,15.0,59,0.00,,,0.00,0,Wunderground v.1.15,2013-05-14 05:29:00,
2013-05-14 00:34:00,49.5,35.8,29.97,SSE,148,15.0,15.0,59,0.00,,,0.00,0,Wunderground v.1.15,2013-05-14 05:34:00,
2013-05-14 00:39:00,49.6,35.8,29.97,SSE,154,12.0,15.0,59,0.00,,,0.00,0,Wunderground v.1.15,2013-05-14 05:39:00,
2013-05-14 00:45:00,49.7,35.5,29.96,SE,135,19.0,19.0,58,0.00,,,0.00,0,Wunderground v.1.15,2013-05-14 05:45:00,
2013-05-14 00:50:00,49.8,35.6,29.96,SSE,155,9.0,14.0,58,0.00,,,0.00,0,Wunderground v.1.15,2013-05-14 05:50:00,
2013-05-14 00:56:00,49.8,35.6,29.96,SSE,159,9.0,16.0,58,0.00,,,0.00,0,Wunderground v.1.15,2013-05-14 05:56:00,
2013-05-14 01:01:00,49.8,35.2,29.95,SSE,158,7.0,19.0,57,0.00,,,0.00,0,Wunderground v.1.15,2013-05-14 06:01:00,
2013-05-14 01:07:00,49.9,35.7,29.95,SE,128,9.0,19.0,58,0.00,,,0.00,0,Wunderground v.1.15,2013-05-14 06:07:00,
2013-05-14 01:12:00,49.8,35.6,29.95,SSE,158,10.0,17.0,58,0.00,,,0.00,0,Wunderground v.1.15,2013-05-14 06:12:00,
2013-05-14 01:17:00,49.7,35.5,29.94,SE,143,11.0,17.0,58,0.00,,,0.00,0,Wunderground v.1.15,2013-05-14 06:17:00,
2013-05-14 01:23:00,49.7,35.9,29.94,SSE,148,11.0,11.0,59,0.00,,,0.00,0,Wunderground v.1.15,2013-05-14 06:23:00,
2013-05-14 01:28:00,49.7,35.9,29.93,ESE,115,9.0,13.0,59,0.00,,,0.00,0,Wunderground v.1.15,2013-05-14 06:28:00,
2013-05-14 01:33:00,49.6,35.8,29.93,SE,129,9.0,18.0,59,0.00,,,0.00,0,Wunderground v.1.15,2013-05-14 06:33:00,
2013-05-14 01:38:00,49.7,35.9,29.93,SE,134,12.0,18.0,59,0.00,,,0.00,0,Wunderground v.1.15,2013-05-14 06:38:00,
2013-05-14 01:43:00,49.7,35.9,29.93,SSE,157,7.0,12.0,59,0.00,,,0.00,0,Wunderground v.1.15,2013-05-14 06:43:00,
2013-05-14 01:48:00,49.7,35.9,29.92,SE,140,7.0,12.0,59,0.00,,,0.00,0,Wunderground v.1.15,2013-05-14 06:48:00,
2013-05-14 01:54:00,49.6,36.3,29.92,SE,144,9.0,9.0,60,0.00,,,0.00,0,Wunderground v.1.15,2013-05-14 06:54:00,
2013-05-14 01:59:00,49.6,36.3,29.92,South,178,10.0,10.0,60,0.00,,,0.00,0,Wunderground v.1.15,2013-05-14 06:59:00,
2013-05-14 02:04:00,49.9,36.6,29.91,South,173,11.0,15.0,60,0.00,,,0.00,0,Wunderground v.1.15,2013-05-14 07:04:00,
2013-05-14 02:09:00,50.0,36.7,29.91,SSE,167,7.0,15.0,60,0.00,,,0.00,0,Wunderground v.1.15,2013-05-14 07:09:00,
2013-05-14 02:14:00,50.0,36.7,29.90,SSE,158,11.0,12.0,60,0.00,,,0.00,0,Wunderground v.1.15,2013-05-14 07:14:00,
2013-05-14 02:19:00,50.0,37.1,29.90,SSE,163,11.0,16.0,61,0.00,,,0.00,0,Wunderground v.1.15,2013-05-14 07:19:00,
2013-05-14 02:24:00,50.2,37.3,29.90,SE,128,11.0,18.0,61,0.00,,,0.00,0,Wunderground v.1.15,2013-05-14 07:24:00,
2013-05-14 02:29:00,50.4,37.4,29.89,SSE,154,9.0,18.0,61,0.00,,,0.00,0,Wunderground v.1.15,2013-05-14 07:29:00,
2013-05-14 02:34:00,50.5,37.5,29.89,SSE,165,9.0,14.0,61,0.00,,,0.00,0,Wunderground v.1.15,2013-05-14 07:34:00,
2013-05-14 02:39:00,50.6,37.6,29.89,SSE,148,12.0,18.0,61,0.00,,,0.00,0,Wunderground v.1.15,2013-05-14 07:39:00,
2013-05-14 02:44:00,50.7,37.7,29.88,SSE,152,13.0,19.0,61,0.00,,,0.00,0,Wunderground v.1.15,2013-05-14 07:44:00,
2013-05-14 02:49:00,50.8,38.2,29.88,SSE,166,10.0,19.0,62,0.00,,,0.00,0,Wunderground v.1.15,2013-05-14 07:49:00,
2013-05-14 02:54:00,50.8,38.7,29.87,SSE,162,10.0,14.0,63,0.00,,,0.00,0,Wunderground v.1.15,2013-05-14 07:54:00,
2013-05-14 02:59:00,51.2,38.6,29.87,South,178,10.0,15.0,62,0.00,,,0.00,0,Wunderground v.1.15,2013-05-14 07:59:00,
2013-05-14 03:04:00,51.5,38.9,29.86,SSE,153,9.0,19.0,62,0.00,,,0.00,0,Wunderground v.1.15,2013-05-14 08:04:00,
2013-05-14 03:09:00,51.8,39.2,29.86,South,172,13.0,19.0,62,0.00,,,0.00,0,Wunderground v.1.15,2013-05-14 08:09:00,
2013-05-14 03:14:00,52.0,39.4,29.86,SSE,153,9.0,17.0,62,0.00,,,0.00,0,Wunderground v.1.15,2013-05-14 08:14:00,
2013-05-14 03:19:00,52.2,39.6,29.86,South,176,10.0,17.0,62,0.00,,,0.00,0,Wunderground v.1.15,2013-05-14 08:19:00,
2013-05-14 03:24:00,52.3,39.7,29.86,South,180,5.0,19.0,62,0.00,,,0.00,0,Wunderground v.1.15,2013-05-14 08:24:00,
2013-05-14 03:29:00,52.3,39.7,29.86,SSE,167,10.0,19.0,62,0.00,,,0.00,0,Wunderground v.1.15,2013-05-14 08:29:00,
2013-05-14 03:34:00,52.2,39.6,29.86,SSE,155,11.0,15.0,62,0.00,,,0.00,0,Wunderground v.1.15,2013-05-14 08:34:00,
2013-05-14 03:39:00,52.2,40.0,29.86,SSE,159,9.0,15.0,63,0.00,,,0.00,0,Wunderground v.1.15,2013-05-14 08:39:00,
2013-05-14 03:44:00,52.1,39.9,29.85,South,170,8.0,11.0,63,0.00,,,0.00,0,Wunderground v.1.15,2013-05-14 08:44:00,
2013-05-14 03:49:00,52.1,40.3,29.85,South,172,9.0,13.0,64,0.00,,,0.00,0,Wunderground v.1.15,2013-05-14 08:49:00,
2013-05-14 03:54:00,52.1,40.3,29.85,South,173,6.0,10.0,64,0.00,,,0.00,0,Wunderground v.1.15,2013-05-14 08:54:00,
2013-05-14 03:59:00,52.1,40.3,29.85,South,174,6.0,13.0,64,0.00,,,0.00,0,Wunderground v.1.15,2013-05-14 08:59:00,
2013-05-14 04:04:00,52.0,40.2,29.84,South,182,8.0,13.0,64,0.00,,,0.00,0,Wunderground v.1.15,2013-05-14 09:04:00,
2013-05-14 04:09:00,52.0,40.2,29.84,SSE,159,8.0,14.0,64,0.00,,,0.00,0,Wunderground v.1.15,2013-05-14 09:09:00,
2013-05-14 04:14:00,51.9,40.1,29.84,South,172,7.0,10.0,64,0.00,,,0.00,0,Wunderground v.1.15,2013-05-14 09:14:00,
2013-05-14 04:19:00,51.7,40.3,29.84,South,180,9.0,13.0,65,0.00,,,0.00,0,Wunderground v.1.15,2013-05-14 09:19:00,
2013-05-14 04:24:00,51.6,40.2,29.83,South,173,10.0,11.0,65,0.00,,,0.00,0,Wunderground v.1.15,2013-05-14 09:24:00,
2013-05-14 04:30:00,51.4,40.4,29.83,SSE,164,7.0,13.0,66,0.00,,,0.00,0,Wunderground v.1.15,2013-05-14 09:30:00,
2013-05-14 04:35:00,51.3,40.3,29.83,South,178,8.0,11.0,66,0.00,,,0.00,0,Wunderground v.1.15,2013-05-14 09:35:00,
2013-05-14 04:40:00,51.1,40.5,29.83,South,169,7.0,9.0,67,0.00,,,0.00,0,Wunderground v.1.15,2013-05-14 09:40:00,
2013-05-14 04:45:00,51.1,40.5,29.83,South,172,9.0,12.0,67,0.00,,,0.00,0,Wunderground v.1.15,2013-05-14 09:45:00,
2013-05-14 04:50:00,51.2,40.6,29.83,SSE,168,7.0,8.0,67,0.00,,,0.00,0,Wunderground v.1.15,2013-05-14 09:50:00,
2013-05-14 04:55:00,51.2,40.6,29.82,South,171,4.0,9.0,67,0.00,,,0.00,0,Wunderground v.1.15,2013-05-14 09:55:00,
2013-05-14 05:00:00,51.0,40.8,29.82,South,169,2.0,5.0,68,0.00,,,0.00,0,Wunderground v.1.15,2013-05-14 10:00:00,
2013-05-14 05:05:00,50.9,40.7,29.82,SSE,149,7.0,10.0,68,0.00,,,0.00,0,Wunderground v.1.15,2013-05-14 10:05:00,
2013-05-14 05:10:00,50.7,40.9,29.83,SSE,160,5.0,7.0,69,0.00,,,0.00,0,Wunderground v.1.15,2013-05-14 10:10:00,
2013-05-14 05:15:00,50.7,40.9,29.82,SE,141,5.0,7.0,69,0.00,,,0.00,0,Wunderground v.1.15,2013-05-14 10:15:00,
2013-05-14 05:20:00,50.5,40.7,29.83,ESE,123,5.0,5.0,69,0.00,,,0.00,0,Wunderground v.1.15,2013-05-14 10:20:00,
2013-05-14 05:25:00,50.4,41.0,29.82,SE,126,6.0,7.0,70,0.00,,,0.00,0,Wunderground v.1.15,2013-05-14 10:25:00,
2013-05-14 05:30:00,50.3,40.9,29.82,SE,143,6.0,6.0,70,0.00,,,0.00,0,Wunderground v.1.15,2013-05-14 10:30:00,
2013-05-14 05:35:00,50.1,41.1,29.82,SSE,155,7.0,9.0,71,0.00,,,0.00,5,Wunderground v.1.15,2013-05-14 10:35:00,
2013-05-14 05:40:00,50.0,41.3,29.82,SSE,157,8.0,8.0,72,0.00,,,0.00,9,Wunderground v.1.15,2013-05-14 10:40:00,
2013-05-14 05:45:00,49.9,41.6,29.82,SSE,168,7.0,9.0,73,0.00,,,0.00,11,Wunderground v.1.15,2013-05-14 10:45:00,
2013-05-14 05:50:00,49.8,41.5,29.81,South,169,6.0,8.0,73,0.00,,,0.00,14,Wunderground v.1.15,2013-05-14 10:50:00,
2013-05-14 05:55:00,49.8,41.5,29.81,SSE,162,7.0,10.0,73,0.00,,,0.00,16,Wunderground v.1.15,2013-05-14 10:55:00,
2013-05-14 06:00:00,49.9,41.6,29.81,SSE,165,7.0,7.0,73,0.00,,,0.00,19,Wunderground v.1.15,2013-05-14 11:00:00,
2013-05-14 06:05:00,50.0,42.7,29.81,SSE,166,6.0,7.0,76,0.00,,,0.00,23,Wunderground v.1.15,2013-05-14 11:05:00,
2013-05-14 06:10:00,50.1,41.8,29.81,South,180,6.0,6.0,73,0.00,,,0.00,25,Wunderground v.1.15,2013-05-14 11:10:00,
2013-05-14 06:15:00,50.5,42.2,29.81,South,180,5.0,7.0,73,0.00,,,0.00,26,Wunderground v.1.15,2013-05-14 11:15:00,
2013-05-14 06:20:00,50.8,42.5,29.81,South,182,3.0,6.0,73,0.00,,,0.00,30,Wunderground v.1.15,2013-05-14 11:20:00,
2013-05-14 06:25:00,51.2,42.8,29.81,South,187,2.0,6.0,73,0.00,,,0.00,37,Wunderground v.1.15,2013-05-14 11:25:00,
2013-05-14 06:30:00,51.5,42.8,29.81,South,184,6.0,7.0,72,0.00,,,0.00,33,Wunderground v.1.15,2013-05-14 11:30:00,
2013-05-14 06:35:00,51.9,43.2,29.81,South,184,2.0,7.0,72,0.00,,,0.00,53,Wunderground v.1.15,2013-05-14 11:35:00,
2013-05-14 06:40:00,52.4,43.3,29.81,South,178,8.0,8.0,71,0.00,,,0.00,39,Wunderground v.1.15,2013-05-14 11:40:00,
2013-05-14 06:45:00,53.0,43.5,29.81,South,181,6.0,9.0,70,0.00,,,0.00,42,Wunderground v.1.15,2013-05-14 11:45:00,
2013-05-14 06:50:00,53.5,43.6,29.81,South,186,6.0,7.0,69,0.00,,,0.00,42,Wunderground v.1.15,2013-05-14 11:50:00,
2013-05-14 06:55:00,54.0,44.1,29.81,South,174,6.0,8.0,69,0.00,,,0.00,46,Wunderground v.1.15,2013-05-14 11:55:00,
2013-05-14 07:00:00,54.4,44.1,29.81,South,175,6.0,8.0,68,0.00,,,0.00,42,Wunderground v.1.15,2013-05-14 12:00:00,
2013-05-14 07:05:00,54.8,44.4,29.81,South,188,5.0,8.0,68,0.00,,,0.00,46,Wunderground v.1.15,2013-05-14 12:05:00,
2013-05-14 07:10:00,55.3,44.5,29.81,SSE,164,5.0,10.0,67,0.00,,,0.00,54,Wunderground v.1.15,2013-05-14 12:10:00,
2013-05-14 07:15:00,55.7,44.5,29.81,South,186,9.0,13.0,66,0.00,,,0.00,67,Wunderground v.1.15,2013-05-14 12:15:00,
2013-05-14 07:21:00,56.0,44.8,29.81,SSW,193,10.0,10.0,66,0.00,,,0.00,104,Wunderground v.1.15,2013-05-14 12:21:00,
2013-05-14 07:26:00,56.4,44.8,29.81,South,174,11.0,11.0,65,0.00,,,0.00,111,Wunderground v.1.15,2013-05-14 12:26:00,
2013-05-14 07:31:00,56.7,45.5,29.81,SSW,203,7.0,8.0,66,0.00,,,0.00,269,Wunderground v.1.15,2013-05-14 12:31:00,
2013-05-14 07:36:00,57.0,45.3,29.81,South,170,6.0,10.0,65,0.00,,,0.00,313,Wunderground v.1.15,2013-05-14 12:36:00,
2013-05-14 07:41:00,57.3,45.2,29.81,SW,216,6.0,7.0,64,0.00,,,0.00,330,Wunderground v.1.15,2013-05-14 12:41:00,
2013-05-14 07:46:00,57.6,45.5,29.81,South,190,9.0,12.0,64,0.00,,,0.00,348,Wunderground v.1.15,2013-05-14 12:46:00,
2013-05-14 07:51:00,57.9,46.2,29.81,South,169,5.0,14.0,65,0.00,,,0.00,366,Wunderground v.1.15,2013-05-14 12:51:00,
2013-05-14 07:56:00,58.4,45.8,29.80,SSW,209,6.0,14.0,63,0.00,,,0.00,385,Wunderground v.1.15,2013-05-14 12:56:00,
2013-05-14 08:01:00,58.8,46.2,29.81,SSW,206,5.0,11.0,63,0.00,,,0.00,401,Wunderground v.1.15,2013-05-14 13:01:00,
2013-05-14 08:06:00,59.0,46.4,29.80,SSW,204,6.0,11.0,63,0.00,,,0.00,418,Wunderground v.1.15,2013-05-14 13:06:00,
2013-05-14 08:11:00,59.3,46.3,29.80,SSW,197,9.0,12.0,62,0.00,,,0.00,436,Wunderground v.1.15,2013-05-14 13:11:00,
2013-05-14 08:16:00,59.7,46.7,29.80,SSW,213,8.0,12.0,62,0.00,,,0.00,454,Wunderground v.1.15,2013-05-14 13:16:00,
2013-05-14 08:21:00,60.0,46.9,29.80,SW,225,6.0,11.0,62,0.00,,,0.00,469,Wunderground v.1.15,2013-05-14 13:21:00,
2013-05-14 08:26:00,60.3,47.6,29.80,SSW,204,9.0,11.0,63,0.00,,,0.00,485,Wunderground v.1.15,2013-05-14 13:26:00,
2013-05-14 08:31:00,60.6,47.5,29.81,SSW,211,6.0,7.0,62,0.00,,,0.00,503,Wunderground v.1.15,2013-05-14 13:31:00,
2013-05-14 08:36:00,61.0,48.3,29.81,SSW,192,8.0,8.0,63,0.00,,,0.00,520,Wunderground v.1.15,2013-05-14 13:36:00,
2013-05-14 08:41:00,61.5,48.4,29.80,South,182,3.0,7.0,62,0.00,,,0.00,538,Wunderground v.1.15,2013-05-14 13:41:00,
2013-05-14 08:46:00,62.0,48.4,29.80,SSW,192,9.0,10.0,61,0.00,,,0.00,554,Wunderground v.1.15,2013-05-14 13:46:00,
2013-05-14 08:51:00,62.4,49.6,29.80,South,185,7.0,10.0,63,0.00,,,0.00,570,Wunderground v.1.15,2013-05-14 13:51:00,
2013-05-14 08:56:00,62.7,48.6,29.79,SSW,209,5.0,10.0,60,0.00,,,0.00,585,Wunderground v.1.15,2013-05-14 13:56:00,
2013-05-14 09:01:00,62.8,48.7,29.80,SW,220,6.0,7.0,60,0.00,,,0.00,598,Wunderground v.1.15,2013-05-14 14:01:00,
2013-05-14 09:06:00,63.1,49.9,29.80,South,174,8.0,8.0,62,0.00,,,0.00,610,Wunderground v.1.15,2013-05-14 14:06:00,
2013-05-14 09:11:00,63.6,49.9,29.80,South,175,7.0,8.0,61,0.00,,,0.00,626,Wunderground v.1.15,2013-05-14 14:11:00,
2013-05-14 09:16:00,64.1,50.8,29.79,South,169,1.0,8.0,62,0.00,,,0.00,640,Wunderground v.1.15,2013-05-14 14:16:00,
2013-05-14 09:21:00,64.7,50.9,29.79,SSW,213,5.0,7.0,61,0.00,,,0.00,656,Wunderground v.1.15,2013-05-14 14:21:00,
2013-05-14 09:27:00,65.2,51.0,29.80,South,190,8.0,9.0,60,0.00,,,0.00,671,Wunderground v.1.15,2013-05-14 14:27:00,
2013-05-14 09:32:00,65.6,50.9,29.80,South,175,5.0,9.0,59,0.00,,,0.00,686,Wunderground v.1.15,2013-05-14 14:32:00,
2013-05-14 09:37:00,66.0,52.2,29.80,SSW,207,7.0,10.0,61,0.00,,,0.00,700,Wunderground v.1.15,2013-05-14 14:37:00,
2013-05-14 09:42:00,66.7,51.5,29.80,NW,308,2.0,6.0,58,0.00,,,0.00,712,Wunderground v.1.15,2013-05-14 14:42:00,
2013-05-14 09:47:00,67.1,51.8,29.80,SW,230,10.0,12.0,58,0.00,,,0.00,724,Wunderground v.1.15,2013-05-14 14:47:00,
2013-05-14 09:52:00,67.3,52.9,29.80,West,259,0.0,8.0,60,0.00,,,0.00,735,Wunderground v.1.15,2013-05-14 14:52:00,
2013-05-14 09:57:00,67.7,52.4,29.81,SW,229,5.0,8.0,58,0.00,,,0.00,745,Wunderground v.1.15,2013-05-14 14:57:00,
2013-05-14 10:02:00,68.0,54.0,29.81,WSW,250,3.0,6.0,61,0.00,,,0.00,759,Wunderground v.1.15,2013-05-14 15:02:00,
2013-05-14 10:07:00,68.5,52.2,29.82,West,275,1.0,12.0,56,0.00,,,0.00,773,Wunderground v.1.15,2013-05-14 15:07:00,
2013-05-14 10:12:00,68.9,52.6,29.81,SW,232,5.0,8.0,56,0.00,,,0.00,782,Wunderground v.1.15,2013-05-14 15:12:00,
2013-05-14 10:17:00,69.5,52.1,29.81,West,263,0.0,12.0,54,0.00,,,0.00,796,Wunderground v.1.15,2013-05-14 15:17:00,
2013-05-14 10:22:00,70.0,52.6,29.81,West,273,5.0,6.0,54,0.00,,,0.00,809,Wunderground v.1.15,2013-05-14 15:22:00,
2013-05-14 10:27:00,70.3,52.9,29.81,West,264,3.0,9.0,54,0.00,,,0.00,816,Wunderground v.1.15,2013-05-14 15:27:00,
2013-05-14 10:32:00,70.4,52.4,29.81,WSW,256,1.0,4.0,53,0.00,,,0.00,828,Wunderground v.1.15,2013-05-14 15:32:00,
2013-05-14 10:37:00,70.8,52.8,29.81,WSW,237,8.0,8.0,53,0.00,,,0.00,838,Wunderground v.1.15,2013-05-14 15:37:00,
2013-05-14 10:42:00,71.2,51.1,29.81,NW,313,0.0,4.0,49,0.00,,,0.00,851,Wunderground v.1.15,2013-05-14 15:42:00,
2013-05-14 10:47:00,71.6,53.6,29.81,West,261,0.0,6.0,53,0.00,,,0.00,861,Wunderground v.1.15,2013-05-14 15:47:00,
2013-05-14 10:52:00,72.0,52.3,29.81,West,261,5.0,11.0,50,0.00,,,0.00,868,Wunderground v.1.15,2013-05-14 15:52:00,
2013-05-14 10:57:00,72.2,53.1,29.82,NNW,345,2.0,11.0,51,0.00,,,0.00,877,Wunderground v.1.15,2013-05-14 15:57:00,
2013-05-14 11:02:00,72.7,51.9,29.82,NW,323,0.0,4.0,48,0.00,,,0.00,888,Wunderground v.1.15,2013-05-14 16:02:00,
2013-05-14 11:07:00,73.4,53.1,29.82,WNW,300,4.0,5.0,49,0.00,,,0.00,896,Wunderground v.1.15,2013-05-14 16:07:00,
2013-05-14 11:12:00,73.7,53.9,29.82,WNW,290,0.0,2.0,50,0.00,,,0.00,902,Wunderground v.1.15,2013-05-14 16:12:00,
2013-05-14 11:17:00,74.1,52.6,29.82,NNW,339,4.0,8.0,47,0.00,,,0.00,911,Wunderground v.1.15,2013-05-14 16:17:00,
2013-05-14 11:22:00,74.1,53.2,29.82,WNW,303,4.0,5.0,48,0.00,,,0.00,916,Wunderground v.1.15,2013-05-14 16:22:00,
2013-05-14 11:27:00,74.2,53.8,29.82,WNW,291,5.0,7.0,49,0.00,,,0.00,923,Wunderground v.1.15,2013-05-14 16:27:00,
2013-05-14 11:32:00,74.0,52.5,29.83,NW,321,5.0,9.0,47,0.00,,,0.00,926,Wunderground v.1.15,2013-05-14 16:32:00,
2013-05-14 11:37:00,74.1,52.0,29.83,NW,319,5.0,9.0,46,0.00,,,0.00,933,Wunderground v.1.15,2013-05-14 16:37:00,
2013-05-14 11:42:00,74.4,51.7,29.83,NW,325,1.0,8.0,45,0.00,,,0.00,942,Wunderground v.1.15,2013-05-14 16:42:00,
2013-05-14 11:47:00,74.8,52.0,29.83,North,11,2.0,8.0,45,0.00,,,0.00,951,Wunderground v.1.15,2013-05-14 16:47:00,
2013-05-14 11:52:00,75.1,52.9,29.83,West,270,5.0,6.0,46,0.00,,,0.00,960,Wunderground v.1.15,2013-05-14 16:52:00,
2013-05-14 11:57:00,75.0,51.6,29.83,WSW,248,0.0,6.0,44,0.00,,,0.00,932,Wunderground v.1.15,2013-05-14 16:57:00,
2013-05-14 12:03:00,75.2,52.4,29.82,WNW,284,2.0,5.0,45,0.00,,,0.00,960,Wunderground v.1.15,2013-05-14 17:03:00,
2013-05-14 12:08:00,75.6,52.1,29.83,WNW,288,2.0,5.0,44,0.00,,,0.00,958,Wunderground v.1.15,2013-05-14 17:08:00,
2013-05-14 12:13:00,75.5,52.7,29.83,WSW,241,1.0,4.0,45,0.00,,,0.00,960,Wunderground v.1.15,2013-05-14 17:13:00,
2013-05-14 12:18:00,75.8,52.3,29.82,WSW,242,0.0,4.0,44,0.00,,,0.00,962,Wunderground v.1.15,2013-05-14 17:18:00,
2013-05-14 12:23:00,76.4,52.2,29.82,West,268,3.0,5.0,43,0.00,,,0.00,963,Wunderground v.1.15,2013-05-14 17:23:00,
2013-05-14 12:28:00,76.6,53.7,29.82,SW,221,5.0,6.0,45,0.00,,,0.00,1023,Wunderground v.1.15,2013-05-14 17:28:00,
2013-05-14 12:33:00,76.7,53.1,29.82,NNE,27,0.0,4.0,44,0.00,,,0.00,380,Wunderground v.1.15,2013-05-14 17:33:00,
2013-05-14 12:38:00,77.0,53.4,29.82,WNW,288,4.0,5.0,44,0.00,,,0.00,1100,Wunderground v.1.15,2013-05-14 17:38:00,
2013-05-14 12:43:00,77.1,52.9,29.82,WNW,282,1.0,5.0,43,0.00,,,0.00,381,Wunderground v.1.15,2013-05-14 17:43:00,
2013-05-14 12:48:00,77.1,52.2,29.82,WNW,282,0.0,5.0,42,0.00,,,0.00,341,Wunderground v.1.15,2013-05-14 17:48:00,
2013-05-14 12:53:00,77.2,53.0,29.82,WNW,284,0.0,2.0,43,0.00,,,0.00,341,Wunderground v.1.15,2013-05-14 17:53:00,
2013-05-14 12:58:00,77.5,54.5,29.82,NW,313,1.0,5.0,45,0.00,,,0.00,299,Wunderground v.1.15,2013-05-14 17:58:00,
2013-05-14 13:03:00,78.2,55.1,29.83,NNE,19,3.0,5.0,45,0.00,,,0.00,1065,Wunderground v.1.15,2013-05-14 18:03:00,
2013-05-14 13:08:00,78.7,53.0,29.84,NNE,23,1.0,5.0,41,0.00,,,0.00,816,Wunderground v.1.15,2013-05-14 18:08:00,
2013-05-14 13:13:00,79.1,54.7,29.84,NE,49,0.0,4.0,43,0.00,,,0.00,1062,Wunderground v.1.15,2013-05-14 18:13:00,
2013-05-14 13:18:00,79.5,53.7,29.84,NE,49,0.0,4.0,41,0.00,,,0.00,1044,Wunderground v.1.15,2013-05-14 18:18:00,
2013-05-14 13:23:00,79.7,53.9,29.84,SSW,202,5.0,6.0,41,0.00,,,0.00,376,Wunderground v.1.15,2013-05-14 18:23:00,
2013-05-14 13:28:00,79.1,54.0,29.84,South,188,6.0,6.0,42,0.00,,,0.00,543,Wunderground v.1.15,2013-05-14 18:28:00,
2013-05-14 13:33:00,78.9,55.1,29.84,ESE,102,1.0,6.0,44,0.00,,,0.00,1090,Wunderground v.1.15,2013-05-14 18:33:00,
2013-05-14 13:38:00,79.3,53.6,29.84,ESE,103,5.0,6.0,41,0.00,,,0.00,1204,Wunderground v.1.15,2013-05-14 18:38:00,
2013-05-14 13:43:00,79.4,50.9,29.84,SW,227,6.0,12.0,37,0.00,,,0.00,461,Wunderground v.1.15,2013-05-14 18:43:00,
2013-05-14 13:48:00,79.1,52.0,29.84,SW,235,1.0,12.0,39,0.00,,,0.00,436,Wunderground v.1.15,2013-05-14 18:48:00,
2013-05-14 13:53:00,79.3,54.2,29.84,WSW,238,0.0,4.0,42,0.00,,,0.00,338,Wunderground v.1.15,2013-05-14 18:53:00,
2013-05-14 13:58:00,79.6,52.5,29.84,WSW,248,0.0,4.0,39,0.00,,,0.00,218,Wunderground v.1.15,2013-05-14 18:58:00,
2013-05-14 14:03:00,79.8,55.3,29.84,WSW,257,1.0,2.0,43,0.00,,,0.00,287,Wunderground v.1.15,2013-05-14 19:03:00,
2013-05-14 14:08:00,80.0,53.5,29.84,NW,323,1.0,5.0,40,0.00,,,0.00,394,Wunderground v.1.15,2013-05-14 19:08:00,
2013-05-14 14:13:00,80.1,52.9,29.84,NE,34,4.0,8.0,39,0.00,,,0.00,417,Wunderground v.1.15,2013-05-14 19:13:00,
2013-05-14 14:18:00,80.3,54.5,29.84,NNE,13,2.0,8.0,41,0.00,,,0.00,311,Wunderground v.1.15,2013-05-14 19:18:00,
2013-05-14 14:23:00,80.3,55.8,29.84,NNE,26,3.0,6.0,43,0.00,,,0.00,322,Wunderground v.1.15,2013-05-14 19:23:00,
2013-05-14 14:28:00,80.4,55.9,29.83,East,95,4.0,6.0,43,0.00,,,0.00,749,Wunderground v.1.15,2013-05-14 19:28:00,
2013-05-14 14:33:00,80.0,56.1,29.83,East,92,2.0,7.0,44,0.00,,,0.00,269,Wunderground v.1.15,2013-05-14 19:33:00,
2013-05-14 14:38:00,79.3,54.2,29.81,East,80,4.0,7.0,42,0.00,,,0.00,111,Wunderground v.1.15,2013-05-14 19:38:00,
2013-05-14 14:43:00,78.3,54.6,29.79,East,92,1.0,6.0,44,0.00,,,0.00,135,Wunderground v.1.15,2013-05-14 19:43:00,
2013-05-14 14:48:00,77.4,54.4,29.78,ESE,105,5.0,11.0,45,0.00,,,0.00,135,Wunderground v.1.15,2013-05-14 19:48:00,
2013-05-14 14:53:00,76.6,55.4,29.76,ESE,115,4.0,9.0,48,0.00,,,0.00,285,Wunderground v.1.15,2013-05-14 19:53:00,
2013-05-14 14:58:00,76.3,55.2,29.74,ENE,78,7.0,11.0,48,0.00,,,0.00,422,Wunderground v.1.15,2013-05-14 19:58:00,
2013-05-14 15:03:00,76.8,55.0,29.74,NE,35,5.0,9.0,47,0.00,,,0.00,777,Wunderground v.1.15,2013-05-14 20:03:00,
2013-05-14 15:08:00,77.6,55.2,29.74,East,82,3.0,11.0,46,0.00,,,0.00,896,Wunderground v.1.15,2013-05-14 20:08:00,
2013-05-14 15:13:00,78.8,58.6,29.75,SE,126,9.0,9.0,50,0.00,,,0.00,870,Wunderground v.1.15,2013-05-14 20:13:00,
2013-05-14 15:18:00,79.1,57.1,29.75,ESE,104,7.0,14.0,47,0.00,,,0.00,649,Wunderground v.1.15,2013-05-14 20:18:00,
2013-05-14 15:23:00,78.8,58.0,29.75,ESE,113,5.0,7.0,49,0.00,,,0.00,292,Wunderground v.1.15,2013-05-14 20:23:00,
2013-05-14 15:28:00,78.5,57.2,29.75,SE,128,8.0,12.0,48,0.00,,,0.00,807,Wunderground v.1.15,2013-05-14 20:28:00,
2013-05-14 15:33:00,78.7,57.4,29.74,ESE,102,6.0,13.0,48,0.00,,,0.00,784,Wunderground v.1.15,2013-05-14 20:33:00,
2013-05-14 15:38:00,79.0,58.8,29.74,ESE,109,7.0,13.0,50,0.00,,,0.00,763,Wunderground v.1.15,2013-05-14 20:38:00,
2013-05-14 15:43:00,79.1,57.7,29.74,East,98,8.0,13.0,48,0.00,,,0.00,744,Wunderground v.1.15,2013-05-14 20:43:00,
2013-05-14 15:48:00,79.1,58.9,29.74,East,79,1.0,13.0,50,0.00,,,0.00,729,Wunderground v.1.15,2013-05-14 20:48:00,
2013-05-14 15:53:00,79.4,58.6,29.73,East,80,3.0,12.0,49,0.00,,,0.00,714,Wunderground v.1.15,2013-05-14 20:53:00,
2013-05-14 15:58:00,79.3,58.5,29.73,East,92,1.0,14.0,49,0.00,,,0.00,701,Wunderground v.1.15,2013-05-14 20:58:00,
2013-05-14 16:03:00,79.4,58.0,29.73,SE,126,5.0,10.0,48,0.00,,,0.00,656,Wunderground v.1.15,2013-05-14 21:03:00,
2013-05-14 16:08:00,79.1,57.1,29.73,SE,132,7.0,13.0,47,0.00,,,0.00,698,Wunderground v.1.15,2013-05-14 21:08:00,
2013-05-14 16:14:00,79.2,57.2,29.73,ENE,74,5.0,13.0,47,0.00,,,0.00,726,Wunderground v.1.15,2013-05-14 21:14:00,
2013-05-14 16:19:00,79.0,58.2,29.73,ESE,109,6.0,14.0,49,0.00,,,0.00,246,Wunderground v.1.15,2013-05-14 21:19:00,
2013-05-14 16:24:00,79.0,58.2,29.72,SE,131,9.0,12.0,49,0.00,,,0.00,684,Wunderground v.1.15,2013-05-14 21:24:00,
2013-05-14 16:29:00,79.2,58.4,29.72,SE,131,11.0,16.0,49,0.00,,,0.00,652,Wunderground v.1.15,2013-05-14 21:29:00,
2013-05-14 16:34:00,79.3,57.3,29.72,ESE,109,12.0,16.0,47,0.00,,,0.00,364,Wunderground v.1.15,2013-05-14 21:34:00,
2013-05-14 16:39:00,79.1,57.7,29.73,ESE,105,12.0,16.0,48,0.00,,,0.00,385,Wunderground v.1.15,2013-05-14 21:39:00,
2013-05-14 16:44:00,79.4,58.0,29.73,SE,140,7.0,13.0,48,0.00,,,0.00,362,Wunderground v.1.15,2013-05-14 21:44:00,
2013-05-14 16:49:00,79.4,54.3,29.74,East,101,11.0,14.0,42,0.00,,,0.00,221,Wunderground v.1.15,2013-05-14 21:49:00,
2013-05-14 16:54:00,79.4,56.8,29.74,ESE,107,6.0,11.0,46,0.00,,,0.00,216,Wunderground v.1.15,2013-05-14 21:54:00,
2013-05-14 16:59:00,79.8,56.6,29.74,East,91,6.0,11.0,45,0.00,,,0.00,619,Wunderground v.1.15,2013-05-14 21:59:00,
2013-05-14 17:04:00,80.5,55.9,29.73,ESE,111,6.0,9.0,43,0.00,,,0.00,573,Wunderground v.1.15,2013-05-14 22:04:00,
2013-05-14 17:09:00,81.1,57.1,29.72,ESE,114,6.0,11.0,44,0.00,,,0.00,167,Wunderground v.1.15,2013-05-14 22:09:00,
2013-05-14 17:14:00,80.3,54.5,29.71,ESE,120,7.0,13.0,41,0.00,,,0.00,141,Wunderground v.1.15,2013-05-14 22:14:00,
2013-05-14 17:19:00,79.7,55.9,29.69,SE,141,5.0,14.0,44,0.00,,,0.00,234,Wunderground v.1.15,2013-05-14 22:19:00,
2013-05-14 17:24:00,79.8,55.9,29.68,SE,144,10.0,17.0,44,0.00,,,0.00,501,Wunderground v.1.15,2013-05-14 22:24:00,
2013-05-14 17:29:00,80.0,56.1,29.68,ESE,116,11.0,18.0,44,0.00,,,0.00,448,Wunderground v.1.15,2013-05-14 22:29:00,
2013-05-14 17:34:00,80.1,56.8,29.67,SE,138,7.0,18.0,45,0.00,,,0.00,422,Wunderground v.1.15,2013-05-14 22:34:00,
2013-05-14 17:39:00,80.3,57.0,29.67,SE,127,14.0,18.0,45,0.00,,,0.00,404,Wunderground v.1.15,2013-05-14 22:39:00,
2013-05-14 17:44:00,80.5,54.6,29.68,East,98,12.0,18.0,41,0.00,,,0.00,380,Wunderground v.1.15,2013-05-14 22:44:00,
2013-05-14 17:49:00,80.5,55.3,29.68,SE,137,5.0,18.0,42,0.00,,,0.00,364,Wunderground v.1.15,2013-05-14 22:49:00,
2013-05-14 17:54:00,80.4,55.9,29.68,SE,140,7.0,22.0,43,0.00,,,0.00,345,Wunderground v.1.15,2013-05-14 22:54:00,
2013-05-14 17:59:00,80.3,57.0,29.67,ESE,112,8.0,22.0,45,0.00,,,0.00,327,Wunderground v.1.15,2013-05-14 22:59:00,
2013-05-14 18:04:00,80.2,55.0,29.67,SE,133,9.0,22.0,42,0.00,,,0.00,309,Wunderground v.1.15,2013-05-14 23:04:00,
2013-05-14 18:09:00,79.8,55.3,29.67,SSE,162,2.0,22.0,43,0.00,,,0.00,49,Wunderground v.1.15,2013-05-14 23:09:00,
2013-05-14 18:14:00,79.1,54.7,29.67,SE,142,5.0,13.0,43,0.00,,,0.00,40,Wunderground v.1.15,2013-05-14 23:14:00,
2013-05-14 18:19:00,78.4,54.7,29.66,SE,143,9.0,13.0,44,0.00,,,0.00,69,Wunderground v.1.15,2013-05-14 23:19:00,
2013-05-14 18:24:00,78.2,55.1,29.66,ESE,120,5.0,14.0,45,0.00,,,0.00,239,Wunderground v.1.15,2013-05-14 23:24:00,
2013-05-14 18:29:00,78.3,55.2,29.65,ESE,111,4.0,14.0,45,0.00,,,0.00,288,Wunderground v.1.15,2013-05-14 23:29:00,
2013-05-14 18:34:00,78.6,55.5,29.65,SE,136,7.0,14.0,45,0.00,,,0.00,269,Wunderground v.1.15,2013-05-14 23:34:00,
2013-05-14 18:39:00,78.7,55.0,29.65,SE,133,11.0,15.0,44,0.00,,,0.00,79,Wunderground v.1.15,2013-05-14 23:39:00,
2013-05-14 18:45:00,78.3,55.8,29.65,ESE,111,6.0,11.0,46,0.00,,,0.00,58,Wunderground v.1.15,2013-05-14 23:45:00,
2013-05-14 18:50:00,77.8,56.0,29.65,SE,128,13.0,15.0,47,0.00,,,0.00,69,Wunderground v.1.15,2013-05-14 23:50:00,
2013-05-14 18:55:00,77.5,56.3,29.64,SE,126,7.0,13.0,48,0.00,,,0.00,156,Wunderground v.1.15,2013-05-14 23:55:00,
2013-05-14 19:00:00,77.6,56.4,29.63,East,101,6.0,13.0,48,0.00,,,0.00,146,Wunderground v.1.15,2013-05-15 00:00:00,
2013-05-14 19:05:00,77.6,56.4,29.63,East,101,6.0,12.0,48,0.00,,,0.00,100,Wunderground v.1.15,2013-05-15 00:05:00,
2013-05-14 19:10:00,77.5,56.8,29.64,ESE,113,8.0,12.0,49,0.00,,,0.00,49,Wunderground v.1.15,2013-05-15 00:10:00,
2013-05-14 19:14:00,76.9,55.7,29.63,ESE,113,7.0,16.0,48,0.00,,,0.00,30,Wunderground v.1.15,2013-05-15 00:14:00,
2013-05-14 19:19:00,76.4,56.9,29.63,ESE,108,2.0,16.0,51,0.00,,,0.00,21,Wunderground v.1.15,2013-05-15 00:19:00,
2013-05-14 19:25:00,75.7,57.9,29.63,ESE,109,7.0,9.0,54,0.00,,,0.00,19,Wunderground v.1.15,2013-05-15 00:25:00,
2013-05-14 19:30:00,74.9,57.6,29.63,ESE,113,4.0,5.0,55,0.00,,,0.00,23,Wunderground v.1.15,2013-05-15 00:30:00,
2013-05-14 19:35:00,74.2,57.5,29.63,ESE,107,4.0,9.0,56,0.00,,,0.00,39,Wunderground v.1.15,2013-05-15 00:35:00,
2013-05-14 19:40:00,73.6,57.9,29.63,ESE,105,4.0,5.0,58,0.00,,,0.00,83,Wunderground v.1.15,2013-05-15 00:40:00,
2013-05-14 19:45:00,73.3,58.1,29.63,East,89,3.0,8.0,59,0.00,,,0.00,70,Wunderground v.1.15,2013-05-15 00:45:00,
2013-05-14 19:50:00,73.1,57.9,29.63,East,96,6.0,7.0,59,0.00,,,0.00,33,Wunderground v.1.15,2013-05-15 00:50:00,
2013-05-14 19:55:00,72.9,57.7,29.62,East,94,4.0,11.0,59,0.00,,,0.00,23,Wunderground v.1.15,2013-05-15 00:55:00,
2013-05-14 20:00:00,72.5,58.3,29.62,ESE,103,1.0,4.0,61,0.00,,,0.00,18,Wunderground v.1.15,2013-05-15 01:00:00,
2013-05-14 20:05:00,72.0,57.8,29.62,ESE,119,6.0,7.0,61,0.00,,,0.00,14,Wunderground v.1.15,2013-05-15 01:05:00,
2013-05-14 20:10:00,71.5,57.8,29.61,SE,134,2.0,4.0,62,0.00,,,0.00,11,Wunderground v.1.15,2013-05-15 01:10:00,
2013-05-14 20:15:00,71.5,57.3,29.61,SSE,159,8.0,17.0,61,0.00,,,0.00,7,Wunderground v.1.15,2013-05-15 01:15:00,
2013-05-14 20:20:00,72.1,57.4,29.60,SE,127,11.0,11.0,60,0.00,,,0.00,5,Wunderground v.1.15,2013-05-15 01:20:00,
2013-05-14 20:25:00,72.1,57.4,29.59,ESE,115,7.0,17.0,60,0.00,,,0.00,0,Wunderground v.1.15,2013-05-15 01:25:00,
2013-05-14 20:30:00,71.7,57.5,29.60,SE,136,8.0,9.0,61,0.00,,,0.00,0,Wunderground v.1.15,2013-05-15 01:30:00,
2013-05-14 20:35:00,71.4,57.2,29.60,SSE,157,13.0,15.0,61,0.00,,,0.00,0,Wunderground v.1.15,2013-05-15 01:35:00,
2013-05-14 20:40:00,71.4,56.8,29.60,SE,132,18.0,18.0,60,0.00,,,0.00,0,Wunderground v.1.15,2013-05-15 01:40:00,
2013-05-14 20:45:00,71.3,56.7,29.59,SSE,153,10.0,18.0,60,0.00,,,0.00,0,Wunderground v.1.15,2013-05-15 01:45:00,
2013-05-14 20:50:00,71.0,56.4,29.59,ESE,123,8.0,16.0,60,0.00,,,0.00,0,Wunderground v.1.15,2013-05-15 01:50:00,
2013-05-14 20:56:00,70.8,56.7,29.59,SSE,152,7.0,17.0,61,0.00,,,0.00,0,Wunderground v.1.15,2013-05-15 01:56:00,
2013-05-14 21:01:00,70.6,56.5,29.59,SSE,150,9.0,11.0,61,0.00,,,0.00,0,Wunderground v.1.15,2013-05-15 02:01:00,
2013-05-14 21:06:00,70.7,56.6,29.59,SE,125,9.0,17.0,61,0.00,,,0.00,0,Wunderground v.1.15,2013-05-15 02:06:00,
2013-05-14 21:11:00,71.1,56.5,29.59,SSE,163,14.0,14.0,60,0.00,,,0.00,0,Wunderground v.1.15,2013-05-15 02:11:00,
2013-05-14 21:16:00,71.7,56.6,29.59,SSE,163,14.0,15.0,59,0.00,,,0.00,0,Wunderground v.1.15,2013-05-15 02:16:00,
2013-05-14 21:21:00,72.0,56.4,29.59,SE,146,12.0,14.0,58,0.00,,,0.00,0,Wunderground v.1.15,2013-05-15 02:21:00,
2013-05-14 21:26:00,72.0,56.4,29.59,SSE,160,9.0,15.0,58,0.00,,,0.00,0,Wunderground v.1.15,2013-05-15 02:26:00,
2013-05-14 21:31:00,71.8,56.7,29.59,SSE,161,12.0,15.0,59,0.00,,,0.00,0,Wunderground v.1.15,2013-05-15 02:31:00,
2013-05-14 21:36:00,71.5,56.4,29.59,SSE,149,12.0,15.0,59,0.00,,,0.00,0,Wunderground v.1.15,2013-05-15 02:36:00,
2013-05-14 21:41:00,71.2,56.1,29.59,SSE,163,9.0,14.0,59,0.00,,,0.00,0,Wunderground v.1.15,2013-05-15 02:41:00,
2013-05-14 21:46:00,71.1,56.0,29.59,SSE,163,8.0,14.0,59,0.00,,,0.00,0,Wunderground v.1.15,2013-05-15 02:46:00,
2013-05-14 21:51:00,71.0,56.4,29.59,SSE,163,9.0,10.0,60,0.00,,,0.00,0,Wunderground v.1.15,2013-05-15 02:51:00,
2013-05-14 21:56:00,71.0,55.9,29.59,SSE,165,9.0,12.0,59,0.00,,,0.00,0,Wunderground v.1.15,2013-05-15 02:56:00,
2013-05-14 22:01:00,71.6,55.6,29.59,SSE,157,7.0,14.0,57,0.00,,,0.00,0,Wunderground v.1.15,2013-05-15 03:01:00,
2013-05-14 22:06:00,72.2,55.6,29.59,SSW,192,7.0,14.0,56,0.00,,,0.00,0,Wunderground v.1.15,2013-05-15 03:06:00,
2013-05-14 22:11:00,72.3,55.2,29.59,South,189,3.0,10.0,55,0.00,,,0.00,0,Wunderground v.1.15,2013-05-15 03:11:00,
2013-05-14 22:16:00,72.3,55.2,29.59,South,185,6.0,10.0,55,0.00,,,0.00,0,Wunderground v.1.15,2013-05-15 03:16:00,
2013-05-14 22:21:00,72.2,54.6,29.59,South,176,9.0,11.0,54,0.00,,,0.00,0,Wunderground v.1.15,2013-05-15 03:21:00,
2013-05-14 22:26:00,72.5,54.4,29.59,South,178,8.0,11.0,53,0.00,,,0.00,0,Wunderground v.1.15,2013-05-15 03:26:00,
2013-05-14 22:31:00,73.1,54.4,29.58,SSE,163,11.0,11.0,52,0.00,,,0.00,0,Wunderground v.1.15,2013-05-15 03:31:00,
2013-05-14 22:36:00,73.9,54.1,29.58,South,171,7.0,14.0,50,0.00,,,0.00,0,Wunderground v.1.15,2013-05-15 03:36:00,
2013-05-14 22:42:00,74.3,54.5,29.58,SSW,208,7.0,17.0,50,0.00,,,0.00,0,Wunderground v.1.15,2013-05-15 03:42:00,
2013-05-14 22:47:00,74.4,55.1,29.58,South,182,12.0,17.0,51,0.00,,,0.00,0,Wunderground v.1.15,2013-05-15 03:47:00,
2013-05-14 22:52:00,74.6,54.7,29.58,South,188,6.0,16.0,50,0.00,,,0.00,0,Wunderground v.1.15,2013-05-15 03:52:00,
2013-05-14 22:57:00,75.1,54.6,29.58,South,171,9.0,20.0,49,0.00,,,0.00,0,Wunderground v.1.15,2013-05-15 03:57:00,
2013-05-14 23:01:00,75.4,54.9,29.57,South,173,12.0,15.0,49,0.00,,,0.00,0,Wunderground v.1.15,2013-05-15 04:01:00,
2013-05-14 23:06:00,75.8,55.3,29.57,South,171,8.0,17.0,49,0.00,,,0.00,0,Wunderground v.1.15,2013-05-15 04:06:00,
2013-05-14 23:11:00,76.2,55.6,29.57,SSE,166,10.0,16.0,49,0.00,,,0.00,0,Wunderground v.1.15,2013-05-15 04:11:00,
2013-05-14 23:16:00,76.5,55.3,29.57,South,182,9.0,16.0,48,0.00,,,0.00,0,Wunderground v.1.15,2013-05-15 04:16:00,
2013-05-14 23:21:00,76.2,56.2,29.57,SSE,167,12.0,17.0,50,0.00,,,0.00,0,Wunderground v.1.15,2013-05-15 04:21:00,
2013-05-14 23:26:00,76.4,56.4,29.57,SSW,212,9.0,17.0,50,0.00,,,0.00,0,Wunderground v.1.15,2013-05-15 04:26:00,
2013-05-14 23:31:00,77.0,56.9,29.57,South,175,9.0,18.0,50,0.00,,,0.00,0,Wunderground v.1.15,2013-05-15 04:31:00,
2013-05-14 23:36:00,77.4,57.3,29.58,South,185,6.0,18.0,50,0.00,,,0.00,0,Wunderground v.1.15,2013-05-15 04:36:00,
2013-05-14 23:41:00,77.7,58.1,29.58,SSW,196,11.0,18.0,51,0.00,,,0.00,0,Wunderground v.1.15,2013-05-15 04:41:00,
2013-05-14 23:46:00,78.0,58.4,29.58,SSW,206,7.0,18.0,51,0.00,,,0.00,0,Wunderground v.1.15,2013-05-15 04:46:00,
2013-05-14 23:51:00,78.0,58.4,29.58,SSW,200,11.0,16.0,51,0.00,,,0.00,0,Wunderground v.1.15,2013-05-15 04:51:00,
2013-05-14 23:56:00,77.9,58.9,29.58,SW,224,10.0,17.0,52,0.00,,,0.00,0,Wunderground v.1.15,2013-05-15 04:56:00,